sat.trackr.live / text

‹ back to catalog

QIANFAN-9

NORAD 60387 · 2024-140J

PAYLOAD ACTIVE UNKNOWN

§ Identity

Operator
Country
PRC
Launch date
2024-08-06
Launch site
TAISC
Launch vehicle
Mass (kg)
RCS (m²)

External: N2YO · Heavens-Above · Gunter

§ Orbital elements

Epoch: 2026-05-25T03:25:09.993792Z

Period
106.59 min
Inclination
88.9718°
Eccentricity
0.0018257
Mean motion
13.51010913 rev/d
Perigee alt
1,054.9 km
Apogee alt
1,082.1 km
Semi-major
7,446.7 km
B*
1.2351e-4
RAAN
282.3856°
Arg perigee
87.9908°
Mean anomaly
272.3334°
Rev number
8,939

§ Raw data

QIANFAN-91 60387U 24140J   26145.14247678  .00000092  00000+0  12351-3 0  99972 60387  88.9718 282.3856 0018257  87.9908 272.3334 13.51010913 89392

JSON: /api/v1/satellites/60387 · /tle

For live sub-satellite position, see the globe view (requires WebGL).

§ Visibility from observer

Set your observer location to see the next 7 days of passes ≥ 10°. The values pass through the URL so the page stays shareable.

No JS? Fill the form by hand. The geolocation button needs JavaScript.